Chicopee, MA

7:39 AM EDT on March 29, 2017 (GMT -0400)
Westover Air Reserve Base / Metropolitan Airport

Weather History for KCEF - April, 2014

Change the Weather History Date:

Monday, April 21, 2014

  Actual Average Record
Temperature  
Mean Temperature 49 °F -  
Max Temperature 71 °F 59 °F 78 °F (2012)
Min Temperature 28 °F 36 °F 28 °F (2014)
Degree Days  
Heating Degree Days 16    
Moisture  
Dew Point 27 °F    
Average Humidity 50    
Maximum Humidity 98    
Minimum Humidity 15    
Precipitation  
Precipitation 0.00 in - - ()
Sea Level Pressure  
Sea Level Pressure 30.09 in    
Wind  
Wind Speed 5 mph (South)    
Max Wind Speed 15 mph    
Max Gust Speed 23 mph    
Visibility 10 miles    
Events      
Averages and records for this station are not official NWS values.
T = Trace of Precipitation, MM = Missing Value Source: NWS Daily Summary

Daily Weather History Graph

Daily Weather History Graph

Search for Another Location

Airport or City:

Trip Planner

Search our weather history database for the weather conditions in past years. The results will help you decide how hot, cold, wet, or windy it might be!

Date:

Astronomy

Apr. 21, 2014 Rise Set
Actual Time 6:00 AM EDT 7:38 PM EDT
Civil Twilight 5:30 AM EDT 8:07 PM EDT
Nautical Twilight 4:54 AM EDT 8:43 PM EDT
Astronomical Twilight 4:16 AM EDT 9:22 PM EDT
Moon 1:07 AM EDT (4/21) 11:22 AM EDT (4/21)
Length of Visible Light 14h 37m
Length of Day
13h 38m
Waning Gibbous, 58% of the Moon is Illuminated
Apr 21
Waning Gibbous
Apr 22
Last Quarter
Apr 29
New
May 6
First Quarter
May 14
Full

Hourly Weather History & Observations

Time (EDT) Temp. Windchill Dew Point Humidity Pressure Visibility Wind Dir Wind Speed Gust Speed Precip Events Conditions
12:58 AM 39.6 °F - 25.7 °F 58% 30.33 in 10.0 mi SE 2.3 mph - N/A   Clear
1:58 AM 36.9 °F - 26.2 °F 65% 30.30 in 10.0 mi SE 2.3 mph - N/A   Clear
2:58 AM 32.7 °F - 29.5 °F 88% 30.27 in 10.0 mi South 2.3 mph - N/A   Clear
3:58 AM 31.8 °F - 28.2 °F 87% 30.27 in 10.0 mi Calm Calm - N/A   Clear
4:58 AM 29.8 °F - 29.3 °F 98% 30.25 in 10.0 mi ENE 2.3 mph - N/A   Clear
5:58 AM 28.8 °F - 28.2 °F 98% 30.25 in 10.0 mi Calm Calm - N/A   Clear
6:58 AM 31.1 °F - 30.6 °F 98% 30.25 in 10.0 mi Calm Calm - N/A   Clear
7:58 AM 39.6 °F - 30.6 °F 70% 30.23 in 10.0 mi Variable 1.2 mph - N/A   Clear
8:58 AM 46.2 °F 43.3 °F 28.8 °F 51% 30.21 in 10.0 mi South 5.8 mph - N/A   Clear
9:58 AM 50.9 °F - 23.0 °F 34% 30.18 in 10.0 mi South 8.1 mph - N/A   Clear
10:58 AM 55.4 °F - 21.4 °F 27% 30.16 in 10.0 mi South 8.1 mph - N/A   Clear
11:58 AM 60.1 °F - 21.4 °F 23% 30.12 in 10.0 mi Variable 6.9 mph - N/A   Clear
12:58 PM 63.9 °F - 21.4 °F 20% 30.07 in 10.0 mi SW 5.8 mph - N/A   Clear
1:58 PM 67.1 °F - 20.1 °F 17% 30.03 in 10.0 mi South 9.2 mph - N/A   Partly Cloudy
2:58 PM 69.8 °F - 22.3 °F 17% 29.99 in 10.0 mi South 8.1 mph - N/A   Clear
3:58 PM 70.7 °F - 21.9 °F 16% 29.95 in 10.0 mi South 12.7 mph - N/A   Clear
4:58 PM 70.3 °F - 19.9 °F 15% 29.93 in 10.0 mi South 12.7 mph - N/A   Clear
6:58 PM 63.7 °F - 18.7 °F 18% 29.90 in 10.0 mi SSW 15.0 mph 23.0 mph N/A   Clear
7:58 PM 60.3 °F - 29.3 °F 31% 29.90 in 10.0 mi South 11.5 mph 21.9 mph N/A   Clear
8:58 PM 56.7 °F - 34.9 °F 44% 29.90 in 10.0 mi South 12.7 mph - N/A   Clear
9:58 PM 53.6 °F - 37.4 °F 54% 29.90 in 10.0 mi South 10.4 mph - N/A   Clear
10:58 PM 51.4 °F - 37.9 °F 60% 29.89 in 10.0 mi South 8.1 mph - N/A   Clear
11:58 PM 49.6 °F - 39.6 °F 68% 29.87 in 10.0 mi South 8.1 mph - N/A   Scattered Clouds